Weather History for Toledo Metcalf, OH

Change the Weather History Date:

Wednesday, September 4, 2013

  Actual Average (KTOL) Record (KTOL)
Temperature  
Mean Temperature 68 °F 68 °F  
Max Temperature 82 °F 80 °F 95 °F (1960)
Min Temperature 53 °F 57 °F 40 °F (1974)
Degree Days  
Heating Degree Days 0 1  
Month to date heating degree days 4  
Since 1 July heating degree days 18  
Cooling Degree Days 2 5  
Month to date cooling degree days 20  
Year to date cooling degree days 722  
Growing Degree Days 18 (Base 50)    
Moisture  
Dew Point 54 °F    
Average Humidity 65    
Maximum Humidity 90    
Minimum Humidity 36    
Precipitation  
Precipitation 0.00 in 0.09 in 1.78 in (1960)
Month to date precipitation 0.39  
Year to date precipitation 23.71  
Snow  
Snow 0.00 in 0.00 in - ()
Month to date snowfall 0.0  
Since 1 July snowfall 0.0  
Since 1 September snowfall 0.0  
Snow Depth -    
Sea Level Pressure  
Sea Level Pressure 30.08 in    
Wind  
Wind Speed 6 mph (WSW)    
Max Wind Speed 14 mph    
Max Gust Speed 21 mph    
Visibility 10 miles    
Events      
T = Trace of Precipitation, MM = Missing Value Source: NWS Daily Summary

Daily Weather History Graph

Daily Weather History Graph

Search for Another Location

Airport:

Trip Planner

Search our weather history database for the weather conditions in past years. The results will help you decide how hot, cold, wet, or windy it might be!

Date:

Astronomy

Sep. 04, 2013 Rise Set
Actual Time 7:03 AM EDT 8:01 PM EDT
Civil Twilight 6:34 AM EDT 8:29 PM EDT
Nautical Twilight 6:01 AM EDT 9:03 PM EDT
Astronomical Twilight 5:26 AM EDT 9:38 PM EDT
Moon 6:14 AM EDT (9/4) 7:20 PM EDT (9/4)
Length of Visible Light 13h 54m
Length of Day
12h 58m
Waning Crescent, 1% of the Moon is Illuminated
Sep 4
Waning Crescent
Sep 5
New
Sep 12
First Quarter
Sep 19
Full
Sep 26
Last Quarter

Hourly Weather History & Observations

Time (EDT) Temp. Heat Index Dew Point Humidity Pressure Visibility Wind Dir Wind Speed Gust Speed Precip Events Conditions
12:53 AM 55.9 °F - 52.0 °F 87% 30.05 in 10.0 mi SSW 3.5 mph - N/A   Clear
1:53 AM 57.9 °F - 53.1 °F 84% 30.06 in 10.0 mi SSW 5.8 mph - N/A   Clear
2:53 AM 57.0 °F - 53.1 °F 87% 30.06 in 10.0 mi SW 5.8 mph - N/A   Clear
3:53 AM 55.9 °F - 52.0 °F 87% 30.07 in 10.0 mi SSW 3.5 mph - N/A   Clear
4:53 AM 53.1 °F - 50.0 °F 89% 30.08 in 10.0 mi Calm Calm - N/A   Clear
5:53 AM 54.0 °F - 51.1 °F 90% 30.08 in 10.0 mi SSW 3.5 mph - N/A   Clear
6:53 AM 54.0 °F - 51.1 °F 90% 30.09 in 10.0 mi SW 4.6 mph - N/A   Clear
7:53 AM 55.0 °F - 52.0 °F 89% 30.12 in 10.0 mi SW 5.8 mph - N/A   Clear
8:53 AM 59.0 °F - 55.0 °F 87% 30.12 in 10.0 mi SW 4.6 mph - N/A   Clear
9:53 AM 64.0 °F - 57.0 °F 78% 30.12 in 10.0 mi SW 6.9 mph - N/A   Clear
10:53 AM 70.0 °F - 57.0 °F 63% 30.11 in 10.0 mi WSW 9.2 mph - N/A   Clear
11:53 AM 73.9 °F - 57.0 °F 55% 30.10 in 10.0 mi WSW 11.5 mph - N/A   Clear
12:53 PM 75.9 °F - 55.0 °F 48% 30.09 in 10.0 mi WSW 12.7 mph - N/A   Clear
1:53 PM 79.0 °F - 55.0 °F 44% 30.09 in 10.0 mi West 12.7 mph - N/A   Clear
2:53 PM 80.1 °F 80.0 °F 54.0 °F 40% 30.07 in 10.0 mi West 13.8 mph - N/A   Clear
3:53 PM 81.0 °F - 52.0 °F 36% 30.05 in 10.0 mi West 10.4 mph 20.7 mph N/A   Clear
4:53 PM 82.0 °F 81.3 °F 54.0 °F 38% 30.05 in 10.0 mi West 13.8 mph - N/A   Clear
5:53 PM 82.0 °F 81.2 °F 53.1 °F 37% 30.04 in 10.0 mi West 13.8 mph 19.6 mph N/A   Clear
6:53 PM 79.0 °F - 55.0 °F 44% 30.04 in 10.0 mi West 9.2 mph - N/A   Clear
7:53 PM 73.0 °F - 55.9 °F 55% 30.04 in 10.0 mi West 5.8 mph - N/A   Clear
8:53 PM 73.0 °F - 55.9 °F 55% 30.06 in 10.0 mi Calm Calm - N/A   Clear
9:53 PM 69.1 °F - 57.0 °F 65% 30.07 in 10.0 mi West 6.9 mph - N/A   Clear
10:53 PM 70.0 °F - 55.9 °F 61% 30.08 in 10.0 mi West 8.1 mph - N/A   Clear
11:53 PM 69.1 °F - 55.9 °F 63% 30.09 in 10.0 mi WNW 6.9 mph - N/A   Partly Cloudy